Onweer radar Meer informatie blitzortung!


Regen radar Meer informatie rain snow radar


Bezoek onze andere website:

Template documentation
and downloads

And another site



15 daagse weersverwachting Fredrikstad (NO)

  • Overzicht
  • Per uur
  • 15 dagen
  • Extra
  • Vergelijk
  • Kaarten
  • Dagkaart
  • Meer »
  • Info
  • Statistieken
  • Directe link
    Temp 6h Neerslag Wind  
 04:57     21:50    Daglengte: 16:53 Vandaag
20:00
19°
 
3
 04:59     21:48    Daglengte: 16:49 Morgen
02:00
18°
3.5 mm
4
warningclass
08:00
17°
5.3 mm
3
warningclass
14:00
17°
24.2 mm
3
warningclass
20:00
17°
12.0 mm
4
 05:02     21:45    Daglengte: 16:43 Vrijdag 30 Jul
02:00
17°
 
2
08:00
17°
3.7 mm
2
14:00
22°
 
4
20:00
21°
 
4
 05:04     21:43    Daglengte: 16:39 Zaterdag 31 Jul
02:00
18°
18.9 mm
5
08:00
18°
 
5
14:00
19°
 
5
Locatie info
Region: Østfold
Latitude: 59.2141°N
Longitude: 10.9382°E
6 masl
Postcode: 1607
Temp/Neerslag /Baro Onweer/Dauwpunt
    Temp Baro 1h Neerslag Dauwpunt Wind UV Bewolking  
 04:57     21:50    Daglengte: 16:53 Vandaag
20:00
19°
1004.4 hPa
47%
15.3°
3
Windvlaag: 6.6 m/s
13%
21:00
18°
1004.2 hPa
78%
16.0°
3
Windvlaag: 5.5 m/s
38%
22:00
18°
1003.9 hPa 0.5 mm
78%
16.5°
3
Windvlaag: 5.4 m/s
74%
23:00
18°
1003.8 hPa 0.6 mm
82%
16.7°
3
Windvlaag: 4 m/s
65% warningclass
 04:59     21:48    Daglengte: 16:49 Morgen
00:00
18°
1003.3 hPa 0.9 mm
81%
16.0°
4
Windvlaag: 5.5 m/s
57% warningclass
01:00
18°
1003.1 hPa 0.5 mm
81%
15.7°
4
Windvlaag: 6.3 m/s
51%
02:00
18°
1002.5 hPa 0.9 mm
82%
15.4°
4
Windvlaag: 6.5 m/s
76% warningclass
03:00
17°
1002.0 hPa 1.0 mm
82%
15.5°
3
Windvlaag: 6.5 m/s
64% warningclass
04:00
17°
1001.6 hPa 0.8 mm
82%
15.5°
3
Windvlaag: 5.2 m/s
55% warningclass
05:00
17°
1001.0 hPa 0.7 mm
82%
15.9°
3
Windvlaag: 3.5 m/s
53% warningclass
06:00
17°
1000.4 hPa 0.7 mm
82%
16.1°
3
Windvlaag: 3.5 m/s
64% warningclass
07:00
17°
999.9 hPa
82%
16.0°
3
Windvlaag: 3.6 m/s
68%
08:00
17°
999.4 hPa 2.1 mm
82%
16.2°
3
Windvlaag: 3.9 m/s
79% warningclass
09:00
17°
999.3 hPa 2.9 mm
82%
15.8°
3
Windvlaag: 4.6 m/s
83% warningclass
10:00
17°
998.8 hPa 4.3 mm
82%
15.4°
3
Windvlaag: 4.2 m/s
86% warningclass
11:00
17°
998.3 hPa 4.5 mm
82%
15.5°
3
Windvlaag: 3.4 m/s
86% warningclass
12:00
18°
997.7 hPa 4.1 mm
82%
14.8°
4
Windvlaag: 6.7 m/s
86% warningclass
13:00
18°
997.3 hPa 4.2 mm
82%
15.8°
3
Windvlaag: 6.1 m/s
86% warningclass
14:00
17°
996.9 hPa 4.2 mm
82%
15.7°
3
Windvlaag: 5.6 m/s
86% warningclass
15:00
18°
996.4 hPa 4.4 mm
82%
15.7°
4
Windvlaag: 4.5 m/s
84%
16:00
17°
996.2 hPa
82%
15.4°
4
Windvlaag: 4.8 m/s
81%
17:00
17°
995.9 hPa 3.8 mm
82%
15.3°
4
Windvlaag: 5.4 m/s
84%
18:00
17°
995.7 hPa 3.8 mm
82%
15.2°
4
Windvlaag: 5.1 m/s
76%
19:00
17°
995.5 hPa
82%
14.5°
4
Windvlaag: 5.3 m/s
62%
20:00
17°
995.1 hPa
78%
14.3°
4
Windvlaag: 5 m/s
70%
21:00
17°
994.8 hPa
30%
14.2°
4
Windvlaag: 4.8 m/s
75%
22:00
17°
994.5 hPa
27%
14.3°
3
Windvlaag: 4 m/s
61%
23:00
17°
994.2 hPa
25%
14.6°
3
Windvlaag: 3.3 m/s
57%
 05:02     21:45    Daglengte: 16:43 Vrijdag 30 Jul
00:00
16°
993.9 hPa
21%
14.9°
2
Windvlaag: 2.3 m/s
57%
01:00
16°
993.6 hPa
17%
15.2°
2
Windvlaag: 1.9 m/s
62%
02:00
17°
993.4 hPa
16%
15.4°
2
Windvlaag: 2.6 m/s
48%
03:00
17°
993.1 hPa
18%
15.6°
3
Windvlaag: 3.2 m/s
21%
04:00
17°
993.0 hPa
18%
15.9°
3
Windvlaag: 3.4 m/s
60%
05:00
17°
992.8 hPa
69%
15.9°
3
Windvlaag: 2.6 m/s
68%
06:00
17°
993.0 hPa 3.7 mm
77%
15.9°
3
Windvlaag: 1.2 m/s
69%
07:00
17°
993.3 hPa
82%
15.8°
3
Windvlaag: 1.4 m/s
72%
08:00
17°
993.4 hPa
80%
15.9°
2
Windvlaag: 1.4 m/s
74%
09:00
18°
993.6 hPa
24%
16.5°
3
Windvlaag: 0.5 m/s
61%
10:00
19°
993.8 hPa
14%
16.4°
3
Windvlaag: 1.2 m/s
40%
11:00
20°
994.1 hPa
14%
15.7°
3
Windvlaag: 0.9 m/s
47%
12:00
21°
994.2 hPa
14%
15.6°
4
Windvlaag: 3.1 m/s
39%
13:00
22°
994.2 hPa
14%
15.7°
4
Windvlaag: 3 m/s
36%
14:00
22°
994.4 hPa
14%
15.9°
4
Windvlaag: 3.2 m/s
12%
15:00
22°
994.4 hPa
14%
16.8°
5
Windvlaag: 4.9 m/s
11%
16:00
22°
994.6 hPa
18%
17.3°
5
Windvlaag: 4.9 m/s
8%
17:00
22°
993.2 hPa
27%
16.0°
5
Windvlaag: 4.7 m/s
12%
18:00
22°
993.4 hPa
23%
17.0°
5
Windvlaag: 5.1 m/s
8%
19:00
21°
993.4 hPa
21%
17.6°
4
Windvlaag: 6 m/s
12%
20:00
21°
993.4 hPa
21%
17.6°
4
Windvlaag: 6 m/s
28%
21:00
20°
993.6 hPa
21%
17.6°
4
Windvlaag: 6.2 m/s
42%
22:00
19°
993.6 hPa
21%
17.7°
4
Windvlaag: 6.2 m/s
48%
23:00
19°
993.5 hPa
21%
17.7°
4
Windvlaag: 6.4 m/s
57%
 05:04     21:43    Daglengte: 16:39 Zaterdag 31 Jul
00:00
19°
993.5 hPa 6.2 mm
21%
17.5°
5
Windvlaag: 7.1 m/s
52%
01:00
18°
993.6 hPa 6.5 mm
21%
17.3°
5
Windvlaag: 7.5 m/s
81%
02:00
18°
993.6 hPa 6.1 mm
21%
17.1°
5
Windvlaag: 8.9 m/s
88%
03:00
18°
993.5 hPa
21%
16.9°
4
Windvlaag: 9.2 m/s
89%
04:00
18°
993.3 hPa
22%
16.8°
4
Windvlaag: 9.6 m/s
82%
05:00
18°
993.1 hPa
34%
16.4°
5
Windvlaag: 9.4 m/s
81%
06:00
18°
993.1 hPa
36%
15.8°
4
Windvlaag: 9 m/s
94%
07:00
18°
993.3 hPa
34%
15.3°
4
Windvlaag: 8.8 m/s
86%
08:00
18°
993.4 hPa
40%
14.6°
5
Windvlaag: 9 m/s
88%
09:00
18°
993.5 hPa
89%
14.3°
5
Windvlaag: 9.3 m/s
92%
10:00
18°
993.6 hPa
95%
13.8°
6
Windvlaag: 9.5 m/s
82%
11:00
18°
993.8 hPa
84%
14.1°
6
Windvlaag: 9 m/s
81%
12:00
18°
993.9 hPa
31%
14.0°
6
Windvlaag: 8.9 m/s
80%
13:00
19°
993.9 hPa
36%
14.0°
5
Windvlaag: 8.7 m/s
82%
14:00
19°
993.9 hPa
29%
14.0°
5
Windvlaag: 8 m/s
73%
15:00
19°
995.0 hPa
22%
13.9°
5
Windvlaag: 4.3 m/s
36%
16:00
19°
995.0 hPa
24%
13.5°
4
Windvlaag: 2.8 m/s
54%
17:00
19°
994.7 hPa
23%
13.1°
4
Windvlaag: 2.2 m/s
15%
18:00
18°
994.6 hPa
23%
12.7°
3
Windvlaag: 2.4 m/s
35%
19:00
18°
994.5 hPa
22%
12.3°
3
Windvlaag: 2.7 m/s
47%
Temp/Neerslag /Baro Onweer/Dauwpunt
    Temp Baro Neerslag Dauwpunt Wind Bewolking  
 04:57     21:50    Daglengte: 16:53 Vandaag
20:00
19°
1004.4 hPa   15.3°
3
13%
23:00
18°
1003.8 hPa 1.1 mm 16.7°
3
65% warningclass
 04:59     21:48    Daglengte: 16:49 Morgen
02:00
18°
1002.5 hPa 2.4 mm 15.4°
4
76% warningclass
05:00
17°
1001.0 hPa 2.4 mm 15.9°
3
53% warningclass
08:00
17°
999.4 hPa 2.8 mm 16.2°
3
79% warningclass
11:00
17°
998.3 hPa 11.7 mm 15.5°
3
86% warningclass
14:00
17°
996.9 hPa 12.5 mm 15.7°
3
86% warningclass
17:00
17°
995.9 hPa 8.2 mm 15.3°
4
84%
20:00
17°
995.1 hPa 3.8 mm 14.3°
4
70%
23:00
17°
994.2 hPa   14.6°
3
57%
 05:02     21:45    Daglengte: 16:43 Vrijdag 30 Jul
02:00
17°
993.4 hPa   15.4°
2
48%
05:00
17°
992.8 hPa   15.9°
3
68%
08:00
17°
993.4 hPa 3.7 mm 15.9°
2
74%
11:00
20°
994.1 hPa   15.7°
3
47%
14:00
22°
994.4 hPa   15.9°
4
12%
17:00
22°
993.2 hPa   16.0°
5
12%
20:00
21°
993.4 hPa   17.6°
4
28%
23:00
19°
993.5 hPa   17.7°
4
57%
 05:04     21:43    Daglengte: 16:39 Zaterdag 31 Jul
02:00
18°
993.6 hPa 18.9 mm 17.1°
5
88%
05:00
18°
993.1 hPa   16.4°
5
81%
08:00
18°
993.4 hPa   14.6°
5
88%
11:00
18°
993.8 hPa   14.1°
6
81%
14:00
19°
993.9 hPa   14.0°
5
73%
17:00
19°
994.7 hPa   13.1°
4
15%
20:00
18°
994.5 hPa   12.3°
3
71%
23:00
13°
994.9 hPa 27.0 mm 12.4°
5
1%
 05:06     21:41    Daglengte: 16:35 Zondag 01 Aug
02:00
13°
995.8 hPa 27.0 mm 11.9°
4
1%
05:00
13°
996.2 hPa 27.0 mm 11.6°
4
1%
08:00
14°
997.2 hPa 27.1 mm 10.3°
4
1%
11:00
14°
999.0 hPa 27.1 mm 10.5°
4
1%
14:00
15°
1000.1 hPa 27.1 mm 11.0°
4
1%
17:00
14°
1001.4 hPa 27.2 mm 11.0°
4
1%
20:00
14°
1001.9 hPa 27.3 mm 10.9°
3
1%
23:00
13°
1002.4 hPa 27.3 mm 11.0°
3
1%
 05:08     21:38    Daglengte: 16:30 Maandag 02 Aug
02:00
13°
1002.7 hPa 27.3 mm 10.8°
3
1%
05:00
13°
1002.9 hPa 27.4 mm 10.4°
4
1%
08:00
13°
1003.4 hPa 27.4 mm 7.8°
4
1%
11:00
17°
1003.8 hPa 27.4 mm 7.7°
3
1%
14:00
20°
1003.8 hPa 27.4 mm 5.7°
2
1%
17:00
20°
1003.8 hPa 27.4 mm 5.6°
3
1%
20:00
18°
1004.4 hPa 27.4 mm 10.7°
4
0%
23:00
16°
1005.1 hPa 27.5 mm 11.4°
2
1%
 05:10     21:36    Daglengte: 16:26 Dinsdag 03 Aug
02:00
15°
1005.5 hPa 28.2 mm 11.6°
3
1%
05:00
15°
1005.4 hPa 29.6 mm 12.8°
2
1%
08:00
15°
1006.3 hPa 31.0 mm 12.8°
3
1%
11:00
17°
1006.9 hPa 32.4 mm 12.3°
2
1%
14:00
17°
1007.0 hPa 34.5 mm 12.7°
4
1%
17:00
17°
1007.6 hPa 36.9 mm 12.3°
5
1%
20:00
15°
1008.3 hPa 37.1 mm 10.2°
5
1%
23:00
11°
1010.1 hPa 37.1 mm 10.1°
3
0%
 05:13     21:33    Daglengte: 16:20 Woensdag 04 Aug
02:00
10°
1010.6 hPa 37.1 mm 9.4°
2
0%
05:00
10°
Voelt als: 9.2°
1011.1 hPa 37.1 mm 8.7°
2
0%
08:00
13°
1012.0 hPa 37.1 mm 8.3°
2
0%
11:00
16°
1011.9 hPa 37.1 mm 8.5°
1
1%
14:00
17°
1012.1 hPa 37.1 mm 8.6°
3
1%
17:00
17°
1012.3 hPa   10.2°
4
1%
20:00
17°
1011.8 hPa 74.3 mm 12.7°
3
1%
 05:15     21:31    Daglengte: 16:16 Donderdag 05 Aug
02:00
16°
1012.2 hPa 74.3 mm 12.9°
4
1%
08:00
17°
1011.6 hPa 78.0 mm 14.2°
4
1%
14:00
20°
1011.5 hPa 83.3 mm 12.4°
6
1%
20:00
17°
1010.5 hPa 85.5 mm 15.1°
5
1%
 05:17     21:28    Daglengte: 16:11 Vrijdag 06 Aug
02:00
16°
1010.2 hPa 88.8 mm 14.9°
4
1%
08:00
17°
1007.8 hPa 92.0 mm 13.9°
5
1%
14:00
18°
1006.1 hPa 93.8 mm 15.5°
6
1%
20:00
16°
1005.3 hPa 108.9 mm 15.4°
6
1%
 05:19     21:26    Daglengte: 16:07 Zaterdag 07 Aug
02:00
16°
1005.0 hPa 123.3 mm 15.0°
4
1%
08:00
15°
1005.6 hPa 1.7 mm 12.8°
2
67%
14:00
19°
1005.4 hPa 1.4 mm 12.5°
1
70%
20:00
17°
1005.2 hPa 1.3 mm 13.2°
1
66%
 05:22     21:23    Daglengte: 16:01 Zondag 08 Aug
02:00
15°
1006.2 hPa 2.0 mm 12.6°
1
71%
08:00
15°
1006.5 hPa 1.1 mm 12.3°
1
70%
14:00
19°
1007.2 hPa 0.2 mm 12.4°
1
69%
20:00
18°
1007.5 hPa 0.8 mm 13.2°
2
63%
 05:24     21:21    Daglengte: 15:57 Maandag 09 Aug
02:00
15°
1008.9 hPa 0.7 mm 12.9°
1
58%
08:00
16°
1008.9 hPa 0.7 mm 13.0°
1
70%
14:00
18°
1008.9 hPa 2.1 mm 13.5°
3
71%
20:00
17°
1008.7 hPa 1.7 mm 13.9°
4
60%
 05:26     21:18    Daglengte: 15:52 Dinsdag 10 Aug
02:00
15°
1009.8 hPa 0.6 mm 13.1°
3
52%
08:00
16°
1009.6 hPa 0.6 mm 13.1°
2
57%
14:00
19°
1009.2 hPa 1.2 mm 13.1°
3
76%
20:00
17°
1008.5 hPa 1.3 mm 13.4°
2
62%
 05:29     21:15    Daglengte: 15:46 Woensdag 11 Aug
02:00
15°
1009.6 hPa 0.6 mm 12.7°
1
54%
08:00
15°
1009.7 hPa 0.7 mm 12.4°
0
48%
14:00
19°
1009.4 hPa 1.5 mm 12.8°
2
56%
20:00
17°
1008.6 hPa 1.5 mm 13.5°
2
60%
 05:31     21:13    Daglengte: 15:42 Donderdag 12 Aug
02:00
15°
1009.3 hPa 0.9 mm 12.7°
1
64%
08:00
15°
1009.3 hPa   12.3°
1
64%
14:00
18°
1009.3 hPa 0.1 mm 12.4°
2
55%
  CAPE Lifted Index Hail Supercell Tornado SRH 3km CL BTM PRES CL TOP PRES Swiss DWD icon SMHI TS
 04:57     21:50    Daglengte: 16:53 Vandaag
20:00 620 J/kg -2.1 K 0 % 0 % 0 % 0 m²/s² 0 0 -1.44 3
21:00 657 J/kg -2.1 K 0 % 0 % 0 % 0 m²/s² 0 0 -1.53 80
22:00 669 J/kg -2.3 K 0 % 0 % 0 % 0 m²/s² 0 0 -1.4 80
23:00 835 J/kg -2.8 K 0 % 0 % 0 % 0 m²/s² 0 0 -2.23 80
 04:59     21:48    Daglengte: 16:49 Morgen
00:00 712 J/kg -2.3 K 0 % 0 % 0 % 0 m²/s² 0 0 -1.7 95
01:00 567 J/kg -1.9 K 0 % 0 % 0 % 0 m²/s² 0 0 -1.06 80
02:00 358 J/kg -1.4 K 0 % 0 % 0 % 0 m²/s² 0 0 -0.38 95
03:00 481 J/kg -1.6 K 0 % 0 % 0 % 0 m²/s² 0 0 -0.46 95
04:00 599 J/kg -2.2 K 0 % 0 % 0 % 0 m²/s² 0 0 -1.12 95
05:00 531 J/kg -2.0 K 0 % 0 % 0 % 0 m²/s² 0 0 -0.26 95
06:00 413 J/kg -1.6 K 0 % 0 % 0 % 0 m²/s² 0 0 0.44 95
07:00 457 J/kg -1.7 K 0 % 0 % 0 % 0 m²/s² 0 0 -1.52 80
08:00 635 J/kg -2.2 K 0 % 0 % 0 % 0 m²/s² 0 0 -2.02 80
09:00 708 J/kg -2.5 K 0 % 0 % 0 % 0 m²/s² 0 0 -2.41 80
10:00 853 J/kg -3.4 K 0 % 0 % 0 % 0 m²/s² 0 0 -3.16 80
11:00 819 J/kg -2.8 K 0 % 0 % 0 % 0 m²/s² 0 0 -2.35 80
12:00 695 J/kg -2.7 K 0 % 0 % 0 % 0 m²/s² 0 0 -2.31 80
13:00 706 J/kg -2.4 K 0 % 0 % 0 % 0 m²/s² 0 0 -2.07 80
14:00 574 J/kg -2.0 K 0 % 0 % 0 % 0 m²/s² 0 0 -0.65 95
15:00 431 J/kg -1.7 K 0 % 0 % 0 % 0 m²/s² 0 0 1.42 80
16:00 473 J/kg -1.4 K 0 % 0 % 0 % 0 m²/s² 0 0 1.3 3
17:00 470 J/kg -1.8 K 0 % 0 % 0 % 0 m²/s² 0 0 0.69 3
18:00 550 J/kg -1.9 K 0 % 0 % 0 % 0 m²/s² 0 0 0.65 80
19:00 525 J/kg -1.8 K 0 % 0 % 0 % 0 m²/s² 0 0 1.14 3
20:00 347 J/kg -0.8 K 0 % 0 % 0 % 0 m²/s² 0 0 2.47 3
21:00 401 J/kg -1.1 K 0 % 0 % 0 % 0 m²/s² 0 0 1.84 3
22:00 424 J/kg -1.5 K 0 % 0 % 0 % 0 m²/s² 0 0 0.78 3
23:00 515 J/kg -2.3 K 0 % 0 % 0 % 0 m²/s² 0 0 -0.35 3
 05:02     21:45    Daglengte: 16:43 Vrijdag 30 Jul
00:00 545 J/kg -2.6 K 0 % 0 % 0 % 0 m²/s² 0 0 -0.65 3
01:00 402 J/kg -1.7 K 0 % 0 % 0 % 0 m²/s² 0 0 0.25 3
02:00 325 J/kg -1.2 K 0 % 0 % 0 % 0 m²/s² 0 0 1.53 3
03:00 229 J/kg -0.6 K 0 % 0 % 0 % 0 m²/s² 0 0 1.83 2
04:00 167 J/kg 0.0 K 0 % 0 % 0 % 0 m²/s² 0 0 1.62 3
05:00 85 J/kg 0.5 K 0 % 0 % 0 % 0 m²/s² 0 0 1.19 3
06:00 7 J/kg 1.0 K 0 % 0 % 0 % 0 m²/s² 0 0 1.57 61
07:00 4 J/kg 1.9 K 0 % 0 % 0 % 0 m²/s² 0 0 2.56 61
08:00 0 J/kg 1.7 K 0 % 0 % 0 % 0 m²/s² 0 0 2.99 80
09:00 0 J/kg 1.2 K 0 % 0 % 0 % 0 m²/s² 0 0 3.42 3
10:00 0 J/kg 0.4 K 0 % 0 % 0 % 0 m²/s² 0 0 1.33 3
11:00 5 J/kg 0.2 K 0 % 0 % 0 % 0 m²/s² 0 0 0.95 3
12:00 0 J/kg 0.8 K 0 % 0 % 0 % 0 m²/s² 0 0 2.21 3
13:00 0 J/kg 1.1 K 0 % 0 % 0 % 0 m²/s² 0 0 2.51 3
14:00 0 J/kg 1.3 K 0 % 0 % 0 % 0 m²/s² 0 0 2.95 1
15:00 127 J/kg 0.2 K 0 % 0 % 0 % 0 m²/s² 0 0 2.72 0
16:00 276 J/kg -0.6 K 0 % 0 % 0 % 0 m²/s² 0 0 3.39 0
17:00 604 J/kg -1.8 K 0 % 0 % 0 % 0 m²/s² 0 0 3.36 0
18:00 928 J/kg -3.1 K 0 % 0 % 0 % 0 m²/s² 0 0 2.06 1
19:00 1089 J/kg -3.6 K 0 % 0 % 0 % 0 m²/s² 0 0 1.05 0
20:00 1072 J/kg -3.7 K 0 % 0 % 0 % 0 m²/s² 0 0 -0.01 0
21:00 1025 J/kg -3.9 K 0 % 0 % 0 % 0 m²/s² 0 0 -1.26 1
22:00 906 J/kg -3.6 K 0 % 0 % 0 % 0 m²/s² 0 0 -1.32 2
23:00 741 J/kg -3.1 K 0 % 0 % 0 % 0 m²/s² 0 0 -0.22 3
 05:04     21:43    Daglengte: 16:39 Zaterdag 31 Jul
00:00 744 J/kg -3.1 K 0 % 0 % 0 % 0 m²/s² 0 0 -0.04 2
01:00 818 J/kg -3.4 K 0 % 0 % 0 % 0 m²/s² 0 0 -0.43 3
02:00 833 J/kg -3.6 K 0 % 0 % 0 % 0 m²/s² 0 0 -0.3 3
03:00 785 J/kg -3.7 K 0 % 0 % 0 % 0 m²/s² 0 0 -0.4 3
04:00 644 J/kg -3.2 K 0 % 0 % 0 % 0 m²/s² 0 0 0.37 3
05:00 484 J/kg -2.7 K 0 % 0 % 0 % 0 m²/s² 0 0 1.26 3
06:00 521 J/kg -2.8 K 0 % 0 % 0 % 0 m²/s² 0 0 0.95 3
07:00 557 J/kg -2.8 K 0 % 0 % 0 % 0 m²/s² 0 0 0.56 3
08:00 544 J/kg -2.8 K 0 % 0 % 0 % 0 m²/s² 0 0 -0.1 3
09:00 510 J/kg -2.2 K 0 % 0 % 0 % 0 m²/s² 0 0 -0.28 3
10:00 479 J/kg -1.9 K 0 % 0 % 0 % 0 m²/s² 0 0 -0.04 3
11:00 434 J/kg -1.8 K 0 % 0 % 0 % 0 m²/s² 0 0 0.51 3
12:00 314 J/kg -1.1 K 0 % 0 % 0 % 0 m²/s² 0 0 1.66 3
13:00 294 J/kg -1.2 K 0 % 0 % 0 % 0 m²/s² 0 0 1.35 3
14:00 268 J/kg -1.2 K 0 % 0 % 0 % 0 m²/s² 0 0 1.05 3
15:00 259 J/kg -1.3 K 0 % 0 % 0 % 0 m²/s² 0 0 1.37 3
16:00 225 J/kg -1.1 K 0 % 0 % 0 % 0 m²/s² 0 0 2.17 3
17:00 230 J/kg -1.3 K 0 % 0 % 0 % 0 m²/s² 0 0 2.33 3
18:00 253 J/kg -1.6 K 0 % 0 % 0 % 0 m²/s² 0 0 2.21 3
19:00 303 J/kg -1.7 K 0 % 0 % 0 % 0 m²/s² 0 0 2.02 3
Temp Baro Wind Neerslag
  EWN Forecast EWN WRFDA DWD ICON FMI HIRLAM MET Norway GFS
 04:57     21:50    Daglengte: 16:53 Vandaag
20:00 18.6° 1004.4 hPa 2.9 m/s 0.0 mm 18.6° 1003.9 hPa 3.1 m/s 0.2 mm 18.2° 1004.4 hPa 2.8 m/s -1.9 mm 19.3° 1004.5 hPa 2.6 m/s 0.0 mm 18.3° 1004.1 hPa 2.6 m/s
23:00 17.9° 1003.8 hPa 3.3 m/s 1.1 mm 18.2° 1003.1 hPa 3.1 m/s 1.0 mm 17.4° 1004.0 hPa 2.7 m/s 2.0 mm 17.9° 1004.1 hPa 3.4 m/s 0.0 mm 16.4° 1003.5 hPa 2.8 m/s
 04:59     21:48    Daglengte: 16:49 Morgen
02:00 17.5° 1002.5 hPa 3.8 m/s 2.4 mm 16.9° 1002.0 hPa 3.5 m/s 1.9 mm 17.0° 1002.5 hPa 2.3 m/s 2.0 mm 18.1° 1002.9 hPa 3.9 m/s 0.0 mm 16.1° 1002.0 hPa 2.5 m/s
05:00 16.8° 1001.0 hPa 2.8 m/s 2.4 mm 15.5° 999.7 hPa 3.5 m/s 2.1 mm 16.6° 1001.2 hPa 2.6 m/s 2.8 mm 17.1° 1001.4 hPa 2.6 m/s 0.0 mm 15.3° 1000.9 hPa 2.5 m/s
08:00 16.9° 999.4 hPa 3.3 m/s 2.8 mm 16.3° 998.6 hPa 3.5 m/s 9.2 mm 16.7° 999.3 hPa 3.1 m/s 2.8 mm 17.3° 1000.3 hPa 2.8 m/s 0.0 mm 16.1° 999.0 hPa 3.2 m/s
11:00 17.1° 998.3 hPa 3.1 m/s 11.7 mm 17.3° 996.9 hPa 3.6 m/s 36.9 mm 17.0° 998.5 hPa 3.8 m/s 4.0 mm 18.1° 998.5 hPa 2.8 m/s 0.0 mm 17.6° 997.5 hPa 4.1 m/s
14:00 17.4° 996.9 hPa 3.5 m/s 12.5 mm 16.6° 996.2 hPa 2.1 m/s 49.3 mm 16.8° 997.8 hPa 3.9 m/s 2.3 mm 18.8° 996.7 hPa 2.7 m/s 0.0 mm 16.8° 996.7 hPa 4.8 m/s
17:00 17.3° 995.9 hPa 4.3 m/s 8.2 mm 17.7° 995.1 hPa 5.4 m/s 53.2 mm 16.9° 996.6 hPa 4.1 m/s 1.1 mm 18.7° 995.0 hPa 5.2 m/s 0.0 mm 16.3° 996.1 hPa 4.8 m/s
20:00 16.9° 995.1 hPa 4.0 m/s 3.8 mm 17.5° 994.2 hPa 5.4 m/s 53.5 mm 16.7° 996.0 hPa 3.0 m/s 0.3 mm 18.1° 994.8 hPa 6.3 m/s 0.0 mm 16.3° 994.5 hPa 3.0 m/s
23:00 16.7° 994.2 hPa 2.5 m/s 0.0 mm 17.2° 993.3 hPa 5.3 m/s 53.5 mm 16.0° 995.1 hPa 0.5 m/s 0.0 mm 17.9° 994.2 hPa 3.6 m/s 0.0 mm 15.8° 993.6 hPa 3.5 m/s
 05:02     21:45    Daglengte: 16:43 Vrijdag 30 Jul
02:00 16.6° 993.4 hPa 2.3 m/s 0.0 mm 17.1° 991.5 hPa 4.5 m/s 53.6 mm 16.2° 994.7 hPa 1.2 m/s 0.0 mm 17.5° 993.5 hPa 2.1 m/s 0.0 mm 15.2° 992.7 hPa 2.4 m/s
05:00 16.9° 992.8 hPa 3.0 m/s 0.0 mm 16.6° 989.8 hPa 4.7 m/s 53.6 mm 16.9° 993.8 hPa 2.2 m/s 0.0 mm 17.1° 993.3 hPa 2.7 m/s 0.0 mm 15.3° 992.7 hPa 2.3 m/s
08:00 17.5° 993.4 hPa 1.9 m/s 3.7 mm 17.4° 989.4 hPa 2.4 m/s 53.6 mm 17.4° 994.5 hPa 1.4 m/s 0.9 mm 18.2° 994.1 hPa 1.8 m/s 0.0 mm 16.2° 992.8 hPa 2.2 m/s
11:00 20.2° 994.1 hPa 3.4 m/s 0.0 mm 20.6° 990.1 hPa 4.9 m/s 53.6 mm 20.4° 995.4 hPa 2.7 m/s 0.0 mm 21.2° 994.7 hPa 3.4 m/s 0.0 mm 19.7° 993.6 hPa 3.3 m/s
14:00 22.4° 994.4 hPa 3.7 m/s 0.0 mm 22.9° 991.3 hPa 2.8 m/s 53.6 mm 22.2° 995.7 hPa 4.3 m/s 0.0 mm 24.0° 994.9 hPa 3.7 m/s 0.0 mm 22.5° 994.4 hPa 3.7 m/s
17:00 22.1° 993.2 hPa 4.8 m/s 0.0 mm 22.4° 991.8 hPa 5.0 m/s 53.6 mm 22.1° 996.2 hPa 4.8 m/s 0.0 mm 21.3° 994.8 hPa 5.1 m/s
20:00 20.7° 993.4 hPa 3.9 m/s 0.0 mm 20.7° 991.8 hPa 4.6 m/s 53.6 mm 20.6° 996.1 hPa 3.2 m/s 0.0 mm 19.9° 994.3 hPa 5.3 m/s
23:00 18.9° 993.5 hPa 4.1 m/s 0.0 mm 18.4° 991.3 hPa 5.5 m/s 53.6 mm 18.8° 996.5 hPa 3.6 m/s 0.0 mm 18.3° 994.7 hPa 7.0 m/s
 05:04     21:43    Daglengte: 16:39 Zaterdag 31 Jul
02:00 18.3° 993.6 hPa 5.0 m/s 18.9 mm 17.9° 990.4 hPa 4.9 m/s 53.6 mm 18.1° 996.4 hPa 4.0 m/s 0.0 mm 17.6° 994.6 hPa 7.4 m/s
05:00 17.6° 993.1 hPa 5.0 m/s 0.0 mm 17.1° 990.7 hPa 4.8 m/s 53.6 mm 17.6° 995.9 hPa 4.4 m/s 0.0 mm 17.6° 994.0 hPa 7.6 m/s
08:00 17.9° 993.4 hPa 4.6 m/s 0.0 mm 18.7° 990.8 hPa 4.3 m/s 53.7 mm 17.6° 996.0 hPa 3.9 m/s 0.0 mm 17.4° 993.3 hPa 7.3 m/s
11:00 18.4° 993.8 hPa 5.7 m/s 0.0 mm 19.2° 991.5 hPa 6.0 m/s 53.7 mm 17.9° 995.9 hPa 5.5 m/s 0.1 mm 18.0° 993.5 hPa 6.0 m/s
14:00 18.9° 993.9 hPa 5.1 m/s 0.0 mm 19.2° 992.2 hPa 4.0 m/s 53.8 mm 18.2° 995.9 hPa 5.6 m/s 0.0 mm 17.5° 993.8 hPa 4.1 m/s
17:00 18.5° 994.7 hPa 3.7 m/s 0.0 mm 19.4° 992.3 hPa 1.4 m/s 53.8 mm 18.3° 995.4 hPa 4.3 m/s 0.0 mm 17.8° 993.7 hPa 3.5 m/s
20:00 17.8° 994.5 hPa 2.7 m/s 0.0 mm 19.3° 992.3 hPa 3.3 m/s 53.8 mm 17.4° 995.1 hPa 2.6 m/s 0.0 mm 15.4° 994.2 hPa 4.3 m/s
23:00 13.2° 994.9 hPa 5.0 m/s 27.0 mm 13.2° 994.9 hPa 5.0 m/s 27.0 mm
 05:06     21:41    Daglengte: 16:35 Zondag 01 Aug
02:00 12.5° 995.8 hPa 3.8 m/s 27.0 mm 12.5° 995.8 hPa 3.8 m/s 27.0 mm
05:00 13.2° 996.2 hPa 3.9 m/s 27.0 mm 13.2° 996.2 hPa 3.9 m/s 27.0 mm
08:00 13.6° 997.2 hPa 4.3 m/s 27.1 mm 13.6° 997.2 hPa 4.3 m/s 27.1 mm
11:00 14.0° 999.0 hPa 3.9 m/s 27.1 mm 14.0° 999.0 hPa 3.9 m/s 27.1 mm
14:00 15.0° 1000.1 hPa 4.4 m/s 27.1 mm 15.0° 1000.1 hPa 4.4 m/s 27.1 mm
17:00 14.2° 1001.4 hPa 4.3 m/s 27.2 mm 14.2° 1001.4 hPa 4.3 m/s 27.2 mm
20:00 13.7° 1001.9 hPa 3.1 m/s 27.3 mm 13.7° 1001.9 hPa 3.1 m/s 27.3 mm
23:00 13.2° 1002.4 hPa 2.8 m/s 27.3 mm 13.2° 1002.4 hPa 2.8 m/s 27.3 mm
 05:08     21:38    Daglengte: 16:30 Maandag 02 Aug
02:00 12.7° 1002.7 hPa 3.2 m/s 27.3 mm 12.7° 1002.7 hPa 3.2 m/s 27.3 mm
05:00 12.5° 1002.9 hPa 3.6 m/s 27.4 mm 12.5° 1002.9 hPa 3.6 m/s 27.4 mm
08:00 13.5° 1003.4 hPa 4.1 m/s 27.4 mm 13.5° 1003.4 hPa 4.1 m/s 27.4 mm
11:00 17.3° 1003.8 hPa 3.2 m/s 27.4 mm 17.3° 1003.8 hPa 3.2 m/s 27.4 mm
14:00 19.7° 1003.8 hPa 2.4 m/s 27.4 mm 19.7° 1003.8 hPa 2.4 m/s 27.4 mm
17:00 20.0° 1003.8 hPa 3.0 m/s 27.4 mm 20.0° 1003.8 hPa 3.0 m/s 27.4 mm
20:00 17.5° 1004.4 hPa 4.4 m/s 27.4 mm 17.5° 1004.4 hPa 4.4 m/s 27.4 mm
23:00 16.4° 1005.1 hPa 1.9 m/s 27.5 mm 16.4° 1005.1 hPa 1.9 m/s 27.5 mm
 05:10     21:36    Daglengte: 16:26 Dinsdag 03 Aug
02:00 15.0° 1005.5 hPa 2.6 m/s 28.2 mm 15.0° 1005.5 hPa 2.6 m/s 28.2 mm
05:00 15.0° 1005.4 hPa 2.4 m/s 29.6 mm 15.0° 1005.4 hPa 2.4 m/s 29.6 mm
08:00 14.9° 1006.3 hPa 2.8 m/s 31.0 mm 14.9° 1006.3 hPa 2.8 m/s 31.0 mm
11:00 16.9° 1006.9 hPa 1.8 m/s 32.4 mm 16.9° 1006.9 hPa 1.8 m/s 32.4 mm
14:00 17.1° 1007.0 hPa 3.5 m/s 34.5 mm 17.1° 1007.0 hPa 3.5 m/s 34.5 mm
17:00 16.7° 1007.6 hPa 5.5 m/s 36.9 mm 16.7° 1007.6 hPa 5.5 m/s 36.9 mm
20:00 14.6° 1008.3 hPa 4.6 m/s 37.1 mm 14.6° 1008.3 hPa 4.6 m/s 37.1 mm
23:00 10.9° 1010.1 hPa 3.1 m/s 37.1 mm 10.9° 1010.1 hPa 3.1 m/s 37.1 mm
 05:13     21:33    Daglengte: 16:20 Woensdag 04 Aug
02:00 10.4° 1010.6 hPa 2.4 m/s 37.1 mm 10.4° 1010.6 hPa 2.4 m/s 37.1 mm
05:00 9.8° 1011.1 hPa 1.8 m/s 37.1 mm 9.8° 1011.1 hPa 1.8 m/s 37.1 mm
08:00 12.8° 1012.0 hPa 1.5 m/s 37.1 mm 12.8° 1012.0 hPa 1.5 m/s 37.1 mm
11:00 16.2° 1011.9 hPa 1.1 m/s 37.1 mm 16.2° 1011.9 hPa 1.1 m/s 37.1 mm
14:00 17.5° 1012.1 hPa 2.8 m/s 37.1 mm 17.5° 1012.1 hPa 2.8 m/s 37.1 mm
17:00 17.4° 1012.3 hPa 3.5 m/s 37.1 mm 17.4° 1012.3 hPa 3.5 m/s 37.1 mm
20:00 17.5° 1011.8 hPa 3.4 m/s 37.1 mm 17.5° 1011.8 hPa 3.4 m/s 37.1 mm
 05:15     21:31    Daglengte: 16:16 Donderdag 05 Aug
02:00 15.9° 1012.2 hPa 3.7 m/s 37.1 mm 15.9° 1012.2 hPa 3.7 m/s 37.1 mm
08:00 17.1° 1011.6 hPa 3.8 m/s 39.5 mm 17.1° 1011.6 hPa 3.8 m/s 39.5 mm
14:00 19.5° 1011.5 hPa 5.8 m/s 41.9 mm 19.5° 1011.5 hPa 5.8 m/s 41.9 mm
20:00 17.3° 1010.5 hPa 4.7 m/s 43.3 mm 17.3° 1010.5 hPa 4.7 m/s 43.3 mm
 05:17     21:28    Daglengte: 16:11 Vrijdag 06 Aug
02:00 16.0° 1010.2 hPa 3.9 m/s 45.0 mm 16.0° 1010.2 hPa 3.9 m/s 45.0 mm
08:00 16.6° 1007.8 hPa 4.8 m/s 46.0 mm 16.6° 1007.8 hPa 4.8 m/s 46.0 mm
14:00 18.4° 1006.1 hPa 5.8 m/s 47.8 mm 18.4° 1006.1 hPa 5.8 m/s 47.8 mm
20:00 16.2° 1005.3 hPa 5.6 m/s 57.4 mm 16.2° 1005.3 hPa 5.6 m/s 57.4 mm
 05:19     21:26    Daglengte: 16:07 Zaterdag 07 Aug
02:00 15.5° 1005.0 hPa 4.1 m/s 62.9 mm 15.5° 1005.0 hPa 4.1 m/s 62.9 mm
08:00 15.3° 1005.6 hPa 1.6 m/s 1.7 mm
14:00 18.7° 1005.4 hPa 1.2 m/s 1.4 mm
20:00 17.2° 1005.2 hPa 0.9 m/s 1.3 mm
 05:22     21:23    Daglengte: 16:01 Zondag 08 Aug
02:00 14.8° 1006.2 hPa 0.6 m/s 2.0 mm
08:00 15.3° 1006.5 hPa 0.6 m/s 1.1 mm
14:00 18.8° 1007.2 hPa 1.2 m/s 0.2 mm
20:00 17.6° 1007.5 hPa 2.0 m/s 0.8 mm
 05:24     21:21    Daglengte: 15:57 Maandag 09 Aug
02:00 15.1° 1008.9 hPa 1.3 m/s 0.7 mm
08:00 15.9° 1008.9 hPa 1.3 m/s 0.7 mm
14:00 18.3° 1008.9 hPa 3.1 m/s 2.1 mm
20:00 17.4° 1008.7 hPa 3.7 m/s 1.7 mm
 05:26     21:18    Daglengte: 15:52 Dinsdag 10 Aug
02:00 15.3° 1009.8 hPa 2.9 m/s 0.6 mm
08:00 15.8° 1009.6 hPa 1.9 m/s 0.6 mm
14:00 18.8° 1009.2 hPa 2.7 m/s 1.2 mm
20:00 17.4° 1008.5 hPa 2.3 m/s 1.3 mm
 05:29     21:15    Daglengte: 15:46 Woensdag 11 Aug
02:00 14.9° 1009.6 hPa 0.7 m/s 0.6 mm
08:00 15.5° 1009.7 hPa 0.4 m/s 0.7 mm
14:00 18.8° 1009.4 hPa 1.8 m/s 1.5 mm
20:00 17.3° 1008.6 hPa 2.3 m/s 1.5 mm
 05:31     21:13    Daglengte: 15:42 Donderdag 12 Aug
02:00 15.0° 1009.3 hPa 0.9 m/s 0.9 mm
08:00 15.4° 1009.3 hPa 0.5 m/s 0.0 mm
14:00 18.3° 1009.3 hPa 1.8 m/s 0.1 mm
FMI Hirlam - 7.5 km EWN WRFDA - 12 km DWD ICON - 7 km GFS - 25 km Basiskaart






























































Updatetijd (Europe/Amsterdam) Resolutie Lengte Stap
FMI Hirlam 19:00, 01:00, 07:00, 13:00 7.5 km 49h 1h
EWN WRFDA 16:30, 22:30, 04:30, 10:30 12 km 73h 1h
DWD ICON 18:00, 00:00, 06:00, 12:00 7 km 75h 1h
GFS 14:15, 20:15, 02:15, 08:15 25 km 237h 3h
30+ mm
25-30 mm
20-25 mm
15-20 mm
10-15 mm
6-10 mm
4-6 mm
2-4 mm
1-2 mm
0.5-1 mm
0.2-0.5 mm
0.1-0.2 mm
30+ mm
25-30 mm
20-25 mm
15-20 mm
10-15 mm
6-10 mm
4-6 mm
2-4 mm
1-2 mm
0.5-1 mm
0.2-0.5 mm
0.1-0.2 mm
Sneeuwval
Natte sneeuw
Hagel
Vorst
30+ mm
25-30 mm
20-25 mm
15-20 mm
10-15 mm
6-10 mm
4-6 mm
2-4 mm
1-2 mm
0.5-1 mm
0.2-0.5 mm
0.1-0.2 mm
Sneeuwval
Natte sneeuw
Hagel
Vorst
Onweer
50 mm
40 mm
30 mm
26 mm
22 mm
18 mm
14 mm
10 mm
9 mm
8 mm
7 mm
6 mm
5 mm
4.5 mm
4 mm
3.5 mm